IRIDIUM 911

Last updated on Wed Nov 29 2017 00:19:02 GMT+0000 (Coordinated Universal Time)

1 24842U 97030G 17332.36855717 .00000153 00000-0 38061-4 0 9998 2 24842 86.4458 281.9119 0012291 266.1338 93.8458 14.44999120 76656

Satellite not in orbit

IRIDIUM 911